[[{"header":{"parameterUnit":"m.s-1","parameterCategory":1,"la1":30.2991,"la2":30.254,"lo1":-89.0895,"lo2":-89.0444,"dy":0.0017,"dx":0.0017,"nx":28,"ny":28,"refTime":"2023-10-03T09:00:00:Z","depth":0,"parameterNumber":2,"parameterNumberName":"U-component_of_WINDS"},"data":[0,0,0,0,0,0,0,0,0,0,0,0,0,0,0,0,0,0,0,0,0,0,0,0,0,0,0,0,0,0,0,0,0,0,0,0,0,0,0,0,0,0,0,0,0,0,0,0,0,0,0,0,0,0,0,0,0,0,-3.7041,-3.7041,0,-3.7027,-3.7027,-3.7026,-3.6891,-3.6888,-3.6885,-3.6882,-3.6867,-3.687,-3.6872,0,0,0,0,0,0,0,0,0,0,0,0,0,-3.6953,-3.6955,-3.7041,-3.7041,-3.7041,-3.7027,-3.7027,-3.7026,-3.6892,-3.6888,-3.6884,-3.688,-3.6866,-3.6869,-3.6873,0,0,0,0,0,0,0,0,0,0,0,0,0,-3.697,-3.6956,-3.7041,-3.6972,-3.6966,-3.7027,-3.7027,-3.7026,-3.6893,-3.6888,-3.6883,-3.6878,-3.6865,-3.6869,-3.6873,-3.6999,0,0,-3.6886,-3.6888,0,0,0,0,0,0,0,0,-3.6969,-3.6974,-3.6983,-3.6977,-3.697,-3.6956,-3.699,-3.7017,-3.6894,-3.6921,-3.6881,-3.6876,-3.6901,-3.6902,-3.691,-3.6999,-3.6998,-3.6886,-3.6889,-3.689,-3.6892,0,0,0,0,0,0,0,-3.6968,-3.6974,-3.7035,-3.6983,-3.6975,-3.6942,-3.6939,-3.6994,-3.6939,-3.6918,-3.6908,-3.6908,-3.6896,-3.6906,-3.6909,-3.6998,-3.6886,-3.689,-3.6892,-3.6894,-3.7189,-3.7194,0,0,0,0,0,0,-3.6977,-3.6973,-3.7036,-3.7035,-3.6957,-3.6948,-3.6944,-3.6965,-3.6938,-3.6929,-3.6913,-3.6902,-3.6902,-3.6904,-3.6908,-3.7052,-3.689,-3.6894,-3.6897,-3.7183,-3.719,-3.7196,0,0,0,0,0,0,-3.6975,-3.6984,-3.7036,-3.7002,-3.7006,-3.6955,-3.698,-3.6968,-3.6977,-3.6934,-3.6923,-3.6933,-3.6898,-3.6902,-3.6977,-3.705,-3.6896,-3.69,-3.7177,-3.7185,-3.7193,-3.7344,0,0,0,0,0,0,-3.6974,-3.6984,-3.7031,-3.7004,-3.7008,-3.7107,-3.6984,-3.6971,-3.6985,-3.6971,-3.695,-3.6942,-3.6894,-3.6972,-3.6981,-3.7053,-3.6903,-3.717,-3.7181,-3.719,-3.7333,-3.7357,-3.7377,0,0,0,0,0,-3.6971,-3.7075,-3.7035,-3.7043,-3.7066,-3.7111,-3.7114,-3.7057,-3.6991,-3.7038,-3.701,-3.6943,-3.7041,-3.6981,-3.699,-3.7064,-3.7165,-3.7178,-3.7189,-3.7323,-3.7352,-3.7377,0,0,0,0,0,0,-3.7113,-3.707,-3.7025,-3.7123,-3.7122,-3.7089,-3.7146,-3.709,-3.7107,-3.7093,-3.7022,-3.7018,-3.7104,-3.7092,-3.7026,-3.7185,-3.7091,-3.7106,-3.7189,-3.7217,-3.7239,-3.7239,-3.6906,0,0,0,0,0,-3.7155,-3.7196,-3.7156,-3.7247,-3.7248,-3.7198,-3.7215,-3.7171,-3.7167,-3.7166,-3.7143,-3.7143,-3.7173,-3.7194,-3.722,-3.7331,-3.7324,-3.7386,-3.7409,-3.7427,-3.744,-3.7497,-3.7524,-3.7235,-3.7235,-3.7235,0,0,-3.7244,-3.7226,-3.7255,-3.7275,-3.7268,-3.7312,-3.7198,-3.7249,-3.728,-3.7174,-3.7243,-3.7227,-3.7221,-3.7315,-3.7355,-3.7307,-3.7519,-3.7442,-3.7458,-3.746,-3.7512,-3.754,-3.7564,-3.7243,-3.7242,-3.7241,0,0,-3.7427,-3.7418,-3.7491,-3.7488,-3.748,-3.7446,-3.7464,-3.7439,-3.7424,-3.7493,-3.7414,-3.745,-3.7505,-3.7503,-3.751,-3.7693,-3.7631,-3.7704,-3.7819,-3.7876,-3.7899,-3.7918,-3.7983,-3.8007,-3.7717,-3.7717,-3.7718,0,-3.7538,-3.7599,-3.7537,-3.7592,-3.7603,-3.7509,-3.7583,-3.7583,-3.7584,-3.7593,-3.754,-3.7606,-3.7595,-3.7687,-3.7731,-3.774,-3.7758,-3.7705,-3.79,-3.792,-3.7937,-3.7998,-3.8022,-3.7726,-3.7725,-3.7724,-3.7723,0,-3.7736,-3.778,-3.7841,-3.7844,-3.7861,-3.7926,-3.7873,-3.7899,-3.7854,-3.7825,-3.7896,-3.788,-3.7901,-3.792,-3.7876,-3.8005,-3.7976,-3.7913,-3.7817,-3.7974,-3.803,-3.8053,-3.7739,-3.7736,-3.7733,-3.7731,0,0,-3.8007,-3.7975,-3.7998,-3.7998,-3.7983,-3.8015,-3.8076,-3.8096,-3.8119,-3.8123,-3.8172,-3.822,-3.8161,-3.8169,-3.8125,-3.8175,-3.832,-3.8105,-3.8104,-3.8145,-3.846,-3.8507,-3.8535,-3.8279,-3.8284,-3.8287,-3.846,0,-3.8182,-3.8283,-3.8228,-3.8337,-3.8376,-3.8288,-3.8341,-3.8337,-3.8313,-3.8343,-3.8315,-3.835,-3.8271,-3.8274,-3.832,-3.8293,-3.8382,-3.828,-3.8323,-3.8326,-3.8326,-3.8564,-3.8614,-3.8778,-3.8482,-3.8486,-3.8488,0,-3.84,-3.8413,-3.8526,-3.8502,-3.8517,-3.8565,-3.8578,-3.8608,-3.8603,-3.8581,-3.859,-3.8534,-3.8592,-3.8499,-3.8577,-3.8509,-3.8524,-3.8513,-3.8518,-3.8519,-3.8416,-3.8571,-3.883,-3.8854,-3.8522,-3.852,-3.8517,0,-3.8585,-3.8631,-3.8704,-3.8707,-3.8682,-3.8718,-3.8709,-3.8698,-3.8714,-3.8726,-3.8735,-3.8755,-3.8765,-3.8781,-3.8732,-3.8669,-3.8817,-3.872,-3.88,-3.8802,-3.8834,-3.8833,-3.9099,-3.8847,-3.8846,-3.8846,-3.8845,0,-3.8786,-3.8858,-3.8786,-3.8831,-3.8909,-3.8846,-3.8925,-3.8907,-3.8898,-3.8938,-3.8864,-3.8903,-3.8835,-3.8868,-3.883,-3.89,-3.8906,-3.889,-3.8879,-3.8896,-3.8898,-3.8904,-3.8891,-3.8852,-3.8851,-3.885,-3.8849,0,-3.9005,-3.8961,-3.9034,-3.9004,-3.8999,-3.9058,-3.9032,-3.9072,-3.9043,-3.9094,-3.9102,-3.9056,-3.909,-3.9043,-3.9073,-3.9047,-3.9143,-3.9115,-3.9145,-3.9137,-3.922,-3.9212,-3.9497,-3.9531,-3.9259,-3.9262,-3.9264,0,-3.9136,-3.9189,-3.9165,-3.9186,-3.9182,-3.9217,-3.9232,-3.9172,-3.9191,-3.9188,-3.9229,-3.9257,-3.9276,-3.9335,-3.9304,-3.9326,-3.9298,-3.9396,-3.9301,-3.9316,-3.9298,-3.9295,-3.93,-3.9416,-3.9419,-3.9422,-3.9424,0,-3.9372,-3.9347,-3.9371,-3.9389,-3.9409,-3.942,-3.9425,-3.9447,-3.9384,-3.9409,-3.9443,-3.9458,-3.9487,-3.9516,-3.953,-3.9521,-3.9463,-3.9454,-3.9474,-3.9492,-3.9506,-3.9499,-3.9197,-3.9448,-3.9445,-3.9444,-3.9442,-3.9441,-3.955,-3.9593,-3.9582,-3.9612,-3.961,-3.9616,-3.9653,-3.9627,-3.9654,-3.9674,-3.9637,-3.968,-3.9673,-3.9686,-3.9684,-3.9717,-3.9674,-3.9703,-3.971,-3.9718,-3.973,-3.9502,-3.9719,-3.9719,-3.9718,-3.9717,-3.9717,0,-3.9781,-3.977,-3.9798,-3.9808,-3.9831,-3.9774,-3.9776,-3.98,-3.9839,-3.9837,-3.9857,-3.9896,-3.9924,-3.9895,-3.9917,-3.9949,-3.9923,-3.9957,-3.9954,-3.9952,-3.9767,-3.9748,-3.9978,-3.9978,-3.9978,-3.9978,-3.9978,-3.9978,-3.9904,-3.9973,-3.9948,-4.0015,-4.0003,-4.0044,-4.0051,-4.0057,-4.0055,-4.0101,-4.0124,-4.0105,-4.0093,-4.0113,-4.0136,-4.0127,-4.0138,-4.0182,-4.0164,-3.9991,-3.9965,-3.9941,-3.9922,-4.0185,-4.0185,-4.0345,-4.0347,-4.0348]},{"header":{"parameterUnit":"m.s-1","parameterCategory":1,"la1":30.2991,"la2":30.254,"lo1":-89.0895,"lo2":-89.0444,"dy":0.0017,"dx":0.0017,"nx":28,"ny":28,"refTime":"2023-10-03T09:00:00:Z","depth":0,"parameterNumber":3,"parameterNumberName":"V-component_of_WINDS"},"data":[0,0,0,0,0,0,0,0,0,0,0,0,0,0,0,0,0,0,0,0,0,0,0,0,0,0,0,0,0,0,0,0,0,0,0,0,0,0,0,0,0,0,0,0,0,0,0,0,0,0,0,0,0,0,0,0,0,0,0.5004,0.5004,0,0.4954,0.4953,0.4953,0.4922,0.4922,0.4922,0.4921,0.4865,0.4863,0.4862,0,0,0,0,0,0,0,0,0,0,0,0,0,0.507,0.5069,0.5004,0.5003,0.5003,0.4954,0.4953,0.4952,0.4922,0.4922,0.4922,0.4921,0.4865,0.4863,0.4862,0,0,0,0,0,0,0,0,0,0,0,0,0,0.5032,0.5068,0.5004,0.4982,0.4979,0.4954,0.4953,0.4952,0.4922,0.4922,0.4922,0.4921,0.4866,0.4864,0.4862,0.4853,0,0,0.4855,0.4854,0,0,0,0,0,0,0,0,0.5035,0.503,0.4986,0.4983,0.498,0.4944,0.4955,0.4919,0.4922,0.4944,0.4921,0.4921,0.4891,0.4887,0.4878,0.485,0.4848,0.4855,0.4854,0.4853,0.4852,0,0,0,0,0,0,0,0.5037,0.5032,0.4984,0.4985,0.4982,0.4973,0.4967,0.4948,0.4919,0.4942,0.4939,0.4934,0.4889,0.488,0.4876,0.4847,0.4855,0.4853,0.4852,0.4851,0.4811,0.4811,0,0,0,0,0,0,0.5044,0.5034,0.4986,0.4982,0.5008,0.4972,0.4966,0.4956,0.4919,0.4913,0.4934,0.4933,0.4883,0.4878,0.4874,0.4862,0.4853,0.4851,0.485,0.4811,0.4811,0.4811,0,0,0,0,0,0,0.5046,0.504,0.4988,0.5008,0.5001,0.4971,0.496,0.4955,0.4945,0.4914,0.4908,0.493,0.4883,0.4877,0.4859,0.4859,0.485,0.4848,0.481,0.4811,0.4811,0.4837,0,0,0,0,0,0,0.5048,0.5041,0.5038,0.5008,0.5,0.4975,0.496,0.4954,0.4942,0.494,0.4908,0.4902,0.4882,0.4862,0.4857,0.4856,0.4847,0.481,0.4811,0.4811,0.4836,0.4838,0.484,0,0,0,0,0,0.505,0.5046,0.5038,0.5032,0.4996,0.4975,0.497,0.4948,0.4943,0.4939,0.4919,0.4903,0.4861,0.4861,0.4854,0.4853,0.481,0.481,0.4811,0.4835,0.4838,0.484,0,0,0,0,0,0,0.5074,0.5042,0.5032,0.5019,0.5,0.497,0.4964,0.4952,0.4933,0.4931,0.4904,0.4897,0.4882,0.4865,0.4866,0.4843,0.4833,0.4833,0.4854,0.4856,0.4858,0.4862,0.4845,0,0,0,0,0,0.5079,0.5066,0.5037,0.5028,0.5019,0.4994,0.4984,0.4969,0.4948,0.4939,0.4918,0.4896,0.4878,0.4866,0.4848,0.4834,0.4826,0.483,0.4832,0.4834,0.4833,0.4825,0.4826,0.4812,0.4812,0.4812,0,0,0.5086,0.5067,0.506,0.5033,0.5016,0.5003,0.4987,0.4973,0.4962,0.4936,0.4919,0.4903,0.4877,0.4861,0.4853,0.4847,0.4836,0.4835,0.4836,0.4834,0.4826,0.4827,0.4828,0.4813,0.4813,0.4812,0,0,0.5093,0.5078,0.5069,0.5053,0.503,0.5013,0.5011,0.4983,0.4972,0.4955,0.4935,0.4921,0.489,0.4873,0.486,0.4863,0.4848,0.4858,0.4868,0.486,0.4861,0.4862,0.4863,0.4864,0.4857,0.4857,0.4857,0,0.5105,0.5085,0.5065,0.5053,0.5041,0.502,0.501,0.4996,0.4966,0.4958,0.4953,0.4915,0.4896,0.4876,0.4877,0.4868,0.4864,0.4861,0.4863,0.4864,0.4864,0.4865,0.4865,0.4859,0.4859,0.4858,0.4858,0,0.5101,0.5088,0.5083,0.5058,0.5046,0.5035,0.5012,0.5002,0.4989,0.4972,0.4955,0.4932,0.4909,0.4903,0.4889,0.4882,0.4879,0.4869,0.4858,0.4867,0.4867,0.4867,0.4861,0.486,0.486,0.4859,0,0,0.5121,0.5086,0.5085,0.5074,0.5047,0.5035,0.5023,0.5003,0.4995,0.4976,0.4964,0.494,0.4931,0.4916,0.49,0.4894,0.4898,0.4884,0.4883,0.4887,0.4888,0.4895,0.4896,0.4888,0.4888,0.4888,0.489,0,0.5123,0.5103,0.5085,0.507,0.5057,0.5037,0.5027,0.5009,0.4993,0.4979,0.4962,0.4945,0.4934,0.4926,0.4918,0.4899,0.4897,0.4898,0.4876,0.4875,0.4883,0.4896,0.4903,0.4906,0.489,0.489,0.489,0,0.5124,0.5108,0.5092,0.5068,0.5062,0.5053,0.5033,0.5021,0.5,0.4989,0.4974,0.4958,0.4944,0.4936,0.4915,0.4916,0.4906,0.4895,0.4895,0.4891,0.4883,0.4892,0.4906,0.4907,0.4889,0.4889,0.4889,0,0.5139,0.5114,0.5102,0.5093,0.5064,0.5058,0.5046,0.5025,0.5014,0.4996,0.4989,0.4969,0.4958,0.4942,0.4921,0.4918,0.4903,0.4893,0.4892,0.4893,0.4889,0.4889,0.4901,0.4884,0.4884,0.4884,0.4884,0,0.5144,0.5135,0.5108,0.5101,0.509,0.507,0.5059,0.5045,0.5027,0.5015,0.4997,0.4986,0.4959,0.4944,0.4928,0.4913,0.4908,0.4898,0.4894,0.4899,0.4901,0.4892,0.4891,0.4884,0.4884,0.4884,0.4884,0,0.5159,0.5141,0.5126,0.5101,0.5095,0.5088,0.5066,0.5058,0.5042,0.5028,0.5023,0.4998,0.4981,0.4959,0.4933,0.4922,0.4909,0.4902,0.4916,0.4914,0.4914,0.4914,0.492,0.492,0.4904,0.4904,0.4904,0,0.5163,0.5156,0.5131,0.5123,0.5112,0.5099,0.5088,0.5068,0.5057,0.5034,0.5028,0.501,0.4993,0.4966,0.4945,0.4925,0.4918,0.4921,0.4915,0.4921,0.4917,0.4918,0.4917,0.4923,0.4923,0.4923,0.4923,0,0.5171,0.5163,0.515,0.5133,0.5122,0.5108,0.5092,0.5086,0.5063,0.5052,0.5035,0.5022,0.4998,0.4979,0.4958,0.4943,0.4929,0.4926,0.4925,0.493,0.4939,0.4934,0.492,0.4926,0.4925,0.4925,0.4925,0.4925,0.518,0.5174,0.5156,0.5141,0.5128,0.5115,0.5106,0.5091,0.5077,0.5056,0.5045,0.5028,0.5008,0.4978,0.4964,0.495,0.4944,0.4943,0.4942,0.4942,0.4944,0.4942,0.4946,0.4946,0.4946,0.4946,0.4945,0,0.5188,0.5176,0.5163,0.5144,0.5132,0.5123,0.5105,0.5096,0.5082,0.5065,0.5051,0.5032,0.5014,0.4992,0.4973,0.4966,0.4959,0.4961,0.4961,0.4958,0.495,0.4953,0.4967,0.4967,0.4967,0.4967,0.4967,0.4967,0.519,0.5179,0.5169,0.515,0.5138,0.5123,0.5114,0.5101,0.5088,0.5068,0.5054,0.5041,0.5022,0.5001,0.4985,0.4979,0.4972,0.4976,0.4968,0.4961,0.4959,0.4957,0.4959,0.4975,0.4975,0.4978,0.4978,0.4978]}]]